Weather History for Lufkin, TX

Change the Weather History Date:

Thursday, February 21, 2013

  Actual Average Record
Temperature  
Mean Temperature 62 °F 54 °F  
Max Temperature 75 °F 65 °F 87 °F (1996)
Min Temperature 48 °F 43 °F 20 °F (1978)
Degree Days  
Heating Degree Days 3 11  
Month to date heating degree days 188 280  
Since 1 July heating degree days 1187 1560  
Cooling Degree Days 0 0  
Month to date cooling degree days 3 0  
Year to date cooling degree days 22 8  
Growing Degree Days 13 (Base 50)    
Moisture  
Dew Point 53 °F    
Average Humidity 62    
Maximum Humidity 87    
Minimum Humidity 37    
Precipitation  
Precipitation 0.29 in 0.14 in 2.41 in (1950)
Month to date precipitation 2.67 2.94  
Year to date precipitation 6.72 7.12  
Snow  
Snow 0.00 in - - ()
Month to date snowfall 0.0  
Since 1 July snowfall 0.0  
Snow Depth 0.00 in    
Sea Level Pressure  
Sea Level Pressure 29.74 in    
Wind  
Wind Speed 8 mph (SSE)    
Max Wind Speed 28 mph    
Max Gust Speed 33 mph    
Visibility 7 miles    
Events Rain    
T = Trace of Precipitation, MM = Missing Value Source: NWS Daily Summary

Daily Weather History Graph

Daily Weather History Graph

Search for Another Location

Airport:

Trip Planner

Search our weather history database for the weather conditions in past years. The results will help you decide how hot, cold, wet, or windy it might be!

Date:

Astronomy

Feb. 21, 2013 Rise Set
Actual Time 6:54 AM CST 6:11 PM CST
Civil Twilight 6:29 AM CST 6:36 PM CST
Nautical Twilight 6:01 AM CST 7:04 PM CST
Astronomical Twilight 5:33 AM CST 7:32 PM CST
Moon 2:36 PM CST (2/21) 3:49 AM CST (2/21)
Length of Visible Light 12h 06m
Length of Day
11h 17m
Waxing Gibbous, 84% of the Moon is Illuminated
Feb 21
Waxing Gibbous
Feb 25
Full
Mar 4
Last Quarter
Mar 11
New
Mar 19
First Quarter

Hourly Weather History & Observations

Time (CST) Temp. Dew Point Humidity Pressure Visibility Wind Dir Wind Speed Gust Speed Precip Events Conditions
12:53 AM 55.9 °F 41.0 °F 57% 29.83 in 10.0 mi ESE 13.8 mph 20.7 mph N/A   Overcast
1:53 AM 55.9 °F 43.0 °F 62% 29.82 in 10.0 mi ESE 11.5 mph - N/A   Overcast
2:53 AM 55.0 °F 45.0 °F 69% 29.79 in 10.0 mi ESE 10.4 mph - 0.00 in Rain Light Rain
3:53 AM 55.0 °F 46.9 °F 74% 29.76 in 10.0 mi ESE 9.2 mph - 0.00 in   Overcast
4:12 AM 55.4 °F 48.2 °F 77% 29.77 in 10.0 mi ESE 12.7 mph - N/A   Overcast
4:53 AM 55.4 °F 50.0 °F 82% 29.74 in 10.0 mi SE 18.4 mph 26.5 mph N/A   Overcast
5:53 AM 55.9 °F 51.1 °F 84% 29.73 in 10.0 mi SE 9.2 mph - 0.00 in Rain Light Rain
6:35 AM 57.2 °F 53.6 °F 88% 29.74 in 10.0 mi SE 13.8 mph - 0.00 in Rain Light Rain
6:53 AM 57.0 °F 54.0 °F 89% 29.73 in 6.0 mi SE 13.8 mph - 0.00 in Rain Light Rain
7:25 AM 57.2 °F 53.6 °F 88% 29.73 in 2.5 mi ESE 19.6 mph 24.2 mph 0.01 in Rain Light Rain
7:35 AM 57.2 °F 53.6 °F 88% 29.73 in 3.0 mi ESE 13.8 mph - 0.01 in Rain Light Rain
7:46 AM 57.2 °F 53.6 °F 88% 29.72 in 2.5 mi SE 12.7 mph - 0.01 in   Overcast
7:53 AM 57.9 °F 54.0 °F 87% 29.72 in 1.8 mi SE 16.1 mph - 0.03 in Rain Rain
8:00 AM 57.2 °F 55.4 °F 94% 29.72 in 3.0 mi SE 16.1 mph 21.9 mph 0.00 in Rain Light Rain
8:22 AM 57.2 °F 55.4 °F 94% 29.72 in 2.5 mi SE 13.8 mph - 0.00 in   Overcast
8:49 AM 60.8 °F 57.2 °F 88% 29.73 in 3.0 mi SSE 10.4 mph - 0.00 in   Overcast
8:53 AM 60.1 °F 57.0 °F 90% 29.73 in 3.0 mi SE 13.8 mph - 0.00 in   Overcast
9:01 AM 60.8 °F 57.2 °F 88% 29.73 in 2.5 mi SE 9.2 mph - N/A   Overcast
9:20 AM 60.8 °F 57.2 °F 88% 29.74 in 3.0 mi SE 8.1 mph - 0.00 in Rain Light Rain
9:53 AM 63.0 °F 60.1 °F 90% 29.72 in 5.0 mi SE 6.9 mph - 0.00 in Rain Light Rain
10:39 AM 66.2 °F 62.6 °F 88% 29.71 in 5.0 mi South 12.7 mph 23.0 mph 0.09 in Rain Light Rain
10:53 AM 68.0 °F 64.0 °F 87% 29.70 in 10.0 mi South 11.5 mph - 0.09 in Rain Light Rain
11:18 AM 68.0 °F 64.4 °F 88% 29.70 in 3.0 mi SE 10.4 mph - 0.05 in Rain Light Rain
11:37 AM 68.0 °F 64.4 °F 88% 29.70 in 8.0 mi SW 8.1 mph - 0.06 in Rain Light Rain
12:18 PM 71.6 °F 66.2 °F 83% 29.66 in 10.0 mi South 8.1 mph - 0.00 in   Overcast
12:32 PM 73.4 °F 66.2 °F 78% 29.66 in 9.0 mi South 10.4 mph 19.6 mph 0.00 in   Mostly Cloudy
12:38 PM 71.6 °F 66.2 °F 83% 29.69 in 2.5 mi West 17.3 mph 24.2 mph 0.08 in Rain Rain
12:41 PM 66.2 °F 60.8 °F 83% 29.69 in 1.2 mi West 17.3 mph 25.3 mph 0.11 in Rain Heavy Rain
12:53 PM 66.9 °F 61.0 °F 81% 29.67 in 10.0 mi West 8.1 mph 18.4 mph 0.11 in   Mostly Cloudy
1:53 PM 73.0 °F 59.0 °F 61% 29.67 in 10.0 mi West 9.2 mph - N/A   Partly Cloudy
2:53 PM 75.0 °F 50.0 °F 41% 29.67 in 10.0 mi WNW 15.0 mph 21.9 mph N/A   Clear
3:53 PM 73.9 °F 46.9 °F 38% 29.70 in 10.0 mi WNW 8.1 mph 18.4 mph N/A   Mostly Cloudy
4:53 PM 71.1 °F 44.1 °F 38% 29.72 in 10.0 mi West 5.8 mph - N/A   Overcast
5:53 PM 69.1 °F 43.0 °F 39% 29.74 in 10.0 mi WNW 4.6 mph - N/A   Overcast
6:53 PM 61.0 °F 45.0 °F 56% 29.78 in 10.0 mi Calm Calm - N/A   Clear
7:53 PM 57.0 °F 46.0 °F 67% 29.80 in 10.0 mi Calm Calm - N/A   Clear
8:53 PM 54.0 °F 48.0 °F 80% 29.84 in 10.0 mi Calm Calm - N/A   Clear
9:53 PM 51.1 °F 45.0 °F 80% 29.85 in 10.0 mi Calm Calm - N/A   Clear
10:53 PM 51.1 °F 45.0 °F 80% 29.86 in 10.0 mi Calm Calm - N/A   Clear
11:53 PM 48.9 °F 44.1 °F 83% 29.88 in 10.0 mi Calm Calm - N/A   Clear